Wind_Speed
24 24 23 22 22 21 21 20 20 19 19 18 18 17 17 17 16 16 16 16 16 16 16 16 16 16 16 16 15 15 15 14 14 14 14 14 14 14 15 15 15 15 16 16 16 17 18 18 18 18 19 19 19 20 20 20 21 22 22 22 21 20 19 18 17 16 16 17 18 19 19 21 21 20 19 18 17 18 18 17 19 21 21 19 18 17 16 16
26 25 25 24 23 23 22 22 21 21 20 20 20 19 19 19 19 18 19 19 19 19 19 18 18 18 17 17 17 17 17 17 16 16 16 16 17 17 17 17 18 18 18 18 19 19 20 20 20 20 20 21 22 22 22 22 23 23 23 22 21 19 18 17 17 16 17 19 20 20 21 22 22 21 20 17 18 19 17 17 19 21 23 21 20 19 18 17
28 27 27 26 25 25 24 24 23 23 22 22 21 21 21 21 21 21 21 21 21 20 20 20 19 19 19 18 18 19 18 18 18 18 18 19 19 19 19 20 20 20 21 21 21 21 21 22 22 22 22 23 24 24 24 24 24 24 23 20 19 18 17 17 18 18 18 20 21 22 22 23 23 22 20 18 19 20 17 17 19 21 23 24 23 21 20 19
30 29 29 28 28 27 26 26 25 24 24 24 23 23 24 24 24 24 23 23 22 22 21 21 20 20 20 20 19 20 20 20 19 20 20 21 21 21 22 22 23 23 23 23 22 22 22 23 23 23 24 25 26 27 26 25 24 23 21 19 18 18 18 18 19 20 21 21 22 23 22 23 24 22 21 19 20 21 20 20 21 22 23 25 25 24 22 21
31 31 30 30 29 29 28 27 27 26 26 26 26 26 26 26 26 26 25 24 23 22 22 21 21 21 21 20 21 21 21 21 21 21 22 22 23 23 23 24 24 24 24 24 24 24 24 25 25 26 27 28 28 28 26 24 22 21 19 18 17 18 20 21 22 23 23 23 23 23 23 24 24 23 23 22 21 22 23 24 25 25 24 24 26 26 25 23
33 33 32 32 31 30 30 29 29 29 29 29 29 29 29 28 28 27 26 25 24 23 22 22 22 21 21 21 22 22 23 23 22 23 24 24 25 25 25 26 26 26 26 26 26 27 27 27 28 28 29 28 27 26 23 20 19 19 18 18 18 18 21 24 25 26 25 25 25 24 24 25 25 24 25 24 23 23 24 25 27 27 26 25 25 26 26 25
35 35 34 34 33 33 32 32 32 31 31 31 31 31 30 29 28 27 27 25 24 23 23 23 22 22 22 22 23 24 25 25 24 26 27 27 28 28 28 28 28 29 29 29 29 29 29 29 28 28 28 26 24 23 20 18 17 17 18 18 19 20 23 25 26 27 26 25 26 25 26 27 25 24 25 25 24 25 26 26 27 28 28 27 26 25 25 26
38 37 37 36 36 35 35 34 34 34 33 33 32 32 31 30 29 28 27 26 25 24 24 24 24 24 24 24 25 26 28 28 28 29 30 30 30 29 29 29 28 28 28 29 28 28 28 28 27 26 25 23 22 21 19 18 17 17 19 20 22 23 25 26 27 27 27 26 27 27 27 28 27 25 25 25 25 27 27 27 27 28 29 28 27 27 26 25
40 40 39 39 38 37 37 36 36 35 34 33 33 32 31 30 29 28 28 27 27 26 26 26 26 27 26 27 27 29 31 31 30 30 30 30 29 28 27 27 27 27 26 26 26 26 26 26 25 24 23 21 21 21 21 20 20 20 21 23 25 26 27 28 27 28 27 27 28 27 28 29 27 26 25 24 26 28 29 29 28 28 28 28 28 28 27 26
42 41 41 40 39 39 38 37 36 35 34 34 33 32 32 31 30 30 30 30 29 29 29 29 29 30 30 30 30 31 33 32 31 31 29 29 28 27 27 27 27 27 26 26 25 25 25 25 24 23 23 22 22 22 22 23 23 24 25 26 27 28 28 29 28 28 29 29 30 28 29 29 27 26 26 25 26 28 30 30 29 28 28 28 28 28 28 27
42 41 41 40 39 38 38 37 36 35 35 34 34 33 33 32 32 32 32 32 32 32 32 32 33 33 33 32 31 32 33 32 31 30 29 29 29 29 29 29 29 28 27 27 26 26 26 25 24 24 24 23 24 25 25 26 27 28 28 28 29 29 30 31 30 30 30 31 31 30 29 28 28 28 27 26 27 29 30 30 29 29 29 29 29 28 27 28
43 42 41 40 40 39 38 38 37 37 36 36 36 36 35 35 35 35 35 35 35 35 35 35 35 35 34 33 31 32 32 31 30 30 30 30 30 31 30 30 30 29 28 28 27 27 27 27 27 26 26 26 27 28 28 29 30 30 31 30 31 31 31 31 31 30 31 31 32 31 29 27 27 29 29 27 28 31 32 31 30 29 29 29 29 29 29 29
44 44 43 43 42 41 41 40 40 40 39 39 39 38 38 38 37 37 37 37 37 37 37 37 36 36 34 32 31 32 31 31 31 32 32 32 32 32 31 31 30 29 29 29 28 28 29 29 29 29 29 29 29 30 31 31 31 32 32 32 31 32 31 31 32 31 31 32 32 32 30 25 25 28 29 29 30 32 32 31 30 30 30 30 30 30 31 31
45 45 44 44 44 43 43 43 42 42 41 41 41 40 40 39 39 39 39 38 38 38 37 37 36 35 34 31 31 32 31 32 33 33 33 33 33 32 32 31 31 30 30 30 30 30 30 30 30 30 30 30 30 31 31 32 32 32 33 33 33 32 30 30 31 31 31 32 32 32 31 26 24 28 30 31 32 32 32 30 29 30 30 30 30 30 31 31
46 46 46 45 45 44 44 44 43 43 43 42 42 41 41 40 40 39 39 38 38 38 37 36 36 36 34 32 32 33 33 34 34 34 34 34 34 33 32 32 32 31 31 31 31 31 31 31 32 32 31 31 31 31 32 33 33 33 35 34 33 32 29 28 30 31 31 32 32 32 31 27 25 27 29 31 32 32 31 29 28 29 30 30 30 30 30 30
46 46 47 46 46 45 45 44 44 43 43 43 42 42 41 41 40 40 39 39 39 38 38 38 37 37 36 34 34 34 34 35 35 35 35 35 34 33 33 33 33 33 33 33 33 33 33 34 33 33 33 32 32 32 33 34 33 34 35 35 34 32 30 26 27 30 32 33 33 32 32 29 27 27 28 30 31 31 31 30 30 30 31 31 30 30 30 30
44 45 45 45 46 46 46 46 45 44 44 44 43 43 42 41 41 41 41 40 40 40 39 39 38 39 38 36 35 35 35 36 35 35 35 34 34 34 34 34 34 34 34 35 35 35 35 35 34 33 33 32 32 33 35 34 33 34 35 34 33 32 31 27 26 29 32 33 34 34 34 32 30 30 31 32 31 30 31 32 33 34 34 34 34 33 32 31
43 43 43 43 44 44 45 45 45 45 45 45 45 44 43 43 42 42 42 42 41 40 40 40 39 39 38 36 35 35 35 35 35 35 35 35 35 35 35 35 35 35 35 35 35 35 35 34 34 33 31 31 33 35 36 34 33 33 33 34 33 32 30 28 28 31 33 34 35 36 36 34 32 32 33 33 32 32 31 31 32 33 35 36 36 35 35 34
44 43 42 42 42 42 42 42 43 43 43 43 43 43 42 42 42 42 41 41 40 40 40 39 38 38 37 35 35 35 35 36 36 36 36 36 36 36 36 36 36 35 35 35 35 35 35 35 34 31 30 32 34 36 35 34 34 33 33 34 33 32 30 28 30 33 35 36 36 36 37 34 32 32 32 32 33 33 32 32 32 31 32 34 34 35 35 35
45 44 43 43 42 41 41 41 41 41 41 41 40 40 40 40 40 40 40 39 39 39 39 38 38 38 37 36 36 37 37 37 37 36 36 36 36 36 36 36 36 36 35 36 37 36 36 37 34 30 31 35 36 35 35 35 35 35 34 34 34 33 30 30 33 36 37 38 36 35 35 34 33 33 33 33 33 33 33 32 32 30 30 30 31 31 32 32
46 45 45 45 44 43 43 42 42 41 41 41 40 40 40 41 41 41 41 40 40 41 40 40 40 39 39 38 38 38 37 37 35 35 35 35 36 36 36 37 37 36 37 38 38 37 38 39 35 33 36 38 38 37 37 37 36 36 36 36 35 34 33 33 36 38 39 39 36 35 35 34 33 33 33 33 33 33 33 32 31 30 29 29 29 29 30 31
47 46 46 46 45 45 44 43 43 43 43 42 42 42 42 43 43 43 43 43 42 42 42 41 41 39 38 39 39 38 37 36 35 35 35 36 37 38 38 39 39 39 40 40 39 40 42 41 37 38 40 40 40 40 40 40 39 38 38 38 36 35 36 37 37 39 39 38 37 37 36 35 34 33 33 33 32 33 34 33 31 30 30 30 30 31 31 32
48 48 47 46 46 45 45 45 44 44 43 43 43 43 43 43 43 43 43 43 41 41 42 41 40 39 38 40 40 40 39 37 36 36 36 38 39 40 41 41 41 42 42 41 41 43 44 42 40 42 42 41 41 41 41 40 40 41 40 40 38 37 39 40 38 39 39 38 38 37 37 36 35 34 34 33 33 34 35 34 32 32 32 32 32 33 33 34
50 49 48 47 47 46 46 45 45 45 44 44 44 43 43 43 43 43 44 44 42 40 41 41 41 40 40 41 42 42 41 39 39 39 38 40 41 42 43 43 44 44 42 42 44 45 45 42 41 43 42 41 41 40 40 39 40 41 40 39 38 39 40 40 38 39 39 39 39 38 39 39 36 35 35 34 35 36 36 35 34 33 33 34 34 35 36 37
52 51 50 49 48 48 47 47 46 46 45 45 45 44 44 44 44 44 44 46 45 41 41 43 43 43 43 43 44 43 43 43 42 41 41 42 43 44 44 44 45 43 42 44 45 45 43 40 42 43 42 41 40 39 38 38 40 39 38 38 38 39 39 39 38 38 39 39 39 40 42 42 38 37 35 35 37 37 36 35 34 35 35 36 38 39 40 41
53 53 52 51 50 50 49 49 48 48 47 47 47 46 46 46 45 46 46 49 50 45 42 44 46 47 46 45 45 44 45 45 43 44 45 44 44 44 44 44 44 43 42 44 45 44 40 40 42 42 41 41 39 37 37 39 39 37 35 37 38 38 38 38 38 39 40 40 40 41 42 42 43 42 38 36 37 37 35 35 36 37 38 39 41 42 43 43
55 55 54 53 52 52 51 51 50 50 49 49 49 48 48 48 48 48 48 52 53 49 46 46 48 49 48 46 46 46 47 46 45 46 46 46 46 44 44 43 42 42 42 43 43 41 39 40 41 40 40 39 38 37 38 39 38 35 35 36 38 38 38 39 39 40 41 41 43 42 39 42 46 45 42 40 39 37 36 37 38 38 40 41 43 44 44 44
58 57 56 55 54 54 53 53 52 51 51 51 51 50 50 50 50 50 50 54 56 53 51 50 49 49 49 48 47 47 48 47 47 47 46 45 45 44 43 42 41 41 41 41 41 40 39 39 38 38 38 37 37 38 38 37 36 35 36 37 38 39 40 40 41 42 42 43 45 42 38 43 48 48 46 43 40 39 39 39 39 40 42 44 44 45 45 45
59 59 59 58 57 56 56 55 54 53 53 52 52 53 52 52 52 52 52 55 57 56 55 53 51 49 48 48 47 47 48 48 48 47 45 44 44 43 42 42 41 40 41 41 40 39 39 38 37 37 36 36 37 37 37 36 37 37 37 39 40 40 41 41 42 43 43 46 47 41 38 44 48 49 48 45 42 41 41 41 43 44 45 46 46 46 46 46
60 61 61 61 60 59 58 57 55 55 54 54 54 54 55 55 54 54 56 58 59 59 58 55 53 51 49 48 47 48 48 48 48 46 44 42 42 42 42 41 41 41 41 41 39 38 38 37 37 36 35 36 37 37 37 38 38 38 39 40 41 41 42 42 43 43 44 48 46 41 40 44 47 49 47 45 44 44 44 46 47 47 47 47 47 48 48 49
61 62 62 62 62 61 60 59 58 57 56 56 56 57 57 57 56 58 60 60 59 59 59 57 54 51 49 48 48 48 48 47 46 44 42 41 39 39 39 39 40 40 41 39 37 37 38 38 38 37 37 38 38 38 38 39 39 39 39 40 41 42 43 44 45 45 46 48 45 41 41 43 46 48 45 45 46 48 50 50 50 49 48 48 49 50 51 51
62 63 62 61 61 60 60 60 60 59 59 59 58 58 57 58 60 63 63 60 59 60 59 56 54 51 50 50 49 48 46 45 43 42 41 41 40 38 37 38 38 38 39 37 36 38 39 40 40 40 40 39 39 38 38 37 38 39 40 41 42 44 45 47 47 46 46 46 43 42 42 44 47 46 45 47 49 50 52 52 51 51 51 51 52 53 53 53
56 58 60 60 59 59 59 60 61 60 61 61 59 56 55 59 63 64 62 60 59 58 56 54 53 52 51 50 48 46 44 43 42 41 41 41 40 38 38 37 37 37 38 38 39 40 41 41 41 41 40 39 39 38 37 38 39 40 41 41 43 45 47 48 47 45 45 44 42 43 44 47 48 48 48 50 51 52 52 52 52 52 53 54 54 55 55 55
50 51 53 54 54 54 54 55 57 58 57 58 57 56 56 62 65 63 62 59 55 52 52 51 50 49 50 49 47 45 44 43 43 42 42 41 40 39 38 37 37 38 39 41 42 42 41 41 41 41 40 41 41 40 41 42 42 43 43 44 46 45 45 45 45 45 45 45 45 46 48 50 50 50 52 53 53 53 53 53 53 54 54 55 55 56 56 56
50 50 51 51 51 50 49 49 51 53 54 54 55 57 60 62 62 60 57 52 48 47 48 48 48 48 48 48 47 46 45 44 44 43 43 43 42 41 40 39 39 39 41 42 41 41 41 42 42 42 42 43 44 44 45 45 46 46 46 47 46 42 41 43 45 47 47 48 49 50 52 52 52 52 54 55 55 54 54 54 55 55 55 55 56 56 56 57
50 50 51 52 52 51 51 50 49 51 52 51 54 59 58 55 54 53 52 49 46 46 46 48 49 49 48 48 47 47 46 45 44 44 45 44 44 43 42 41 41 42 42 40 40 41 43 45 45 44 44 45 45 46 46 46 46 47 46 45 43 42 42 45 48 49 49 52 53 53 54 55 55 56 56 55 55 55 55 55 55 56 56 56 56 56 57 58
50 50 51 51 50 51 53 53 51 51 50 51 56 57 53 51 51 52 52 51 49 47 47 49 50 50 49 48 48 48 47 46 46 46 46 45 46 46 44 43 43 43 41 40 41 44 46 47 46 45 44 44 44 44 45 45 45 45 44 43 43 45 47 48 49 50 51 54 56 56 56 57 58 58 57 55 55 55 55 55 55 55 56 56 57 57 58 58
52 52 52 50 49 51 53 54 54 54 53 55 59 59 56 56 57 56 55 53 51 50 50 51 51 51 51 51 51 50 49 48 47 47 47 47 48 48 45 44 44 43 42 42 44 45 46 46 46 46 44 43 42 43 44 45 44 44 44 45 46 49 50 49 50 51 52 55 58 58 58 59 60 58 56 55 54 55 55 55 55 55 56 57 58 58 58 58
53 55 55 51 50 52 53 55 57 58 59 61 62 61 61 62 62 60 59 56 53 53 53 53 53 53 53 53 53 52 51 50 49 49 49 49 49 48 46 44 44 43 43 44 45 46 46 46 47 47 45 43 44 45 45 44 44 45 47 49 50 51 50 50 50 52 54 57 59 60 60 61 60 58 58 57 55 55 56 56 56 57 57 58 58 58 58 58
54 56 56 54 55 55 54 56 58 61 64 65 63 62 62 64 64 62 60 57 54 54 55 55 55 54 54 53 53 52 51 51 51 51 50 50 50 49 48 46 44 43 43 44 46 47 47 48 47 46 46 47 47 47 45 44 45 47 49 51 52 51 50 51 52 54 55 57 58 60 62 62 61 61 62 60 57 56 57 57 58 59 59 59 59 59 59 59
56 56 55 55 57 56 56 59 61 64 67 66 63 61 61 60 59 56 54 53 52 53 54 55 55 54 54 53 53 52 52 52 52 52 52 52 51 51 50 48 46 45 45 46 47 47 47 47 47 48 49 49 48 46 46 47 49 50 51 52 52 51 52 54 57 57 56 58 59 61 64 63 61 62 63 60 58 57 57 58 59 60 60 60 59 59 60 60
58 58 56 55 53 53 55 60 63 64 66 65 62 59 57 55 52 49 49 49 49 51 52 54 55 55 54 53 52 52 52 53 53 53 54 54 53 52 50 49 49 48 48 48 48 47 46 47 48 50 50 49 48 50 51 53 54 54 54 53 52 53 54 55 59 58 58 60 61 63 66 65 61 59 59 59 60 59 58 59 60 60 60 60 61 62 62 62
59 57 58 57 53 50 52 57 61 63 63 63 60 57 55 53 51 50 50 49 49 50 50 51 52 52 53 53 52 52 53 53 54 55 55 54 53 52 52 52 52 51 51 51 50 48 47 48 49 51 51 51 54 56 57 57 56 54 52 51 52 54 55 56 59 61 62 63 63 64 67 65 61 57 57 59 61 61 61 61 61 61 61 62 63 64 64 64
56 52 55 56 53 51 51 53 57 59 59 60 58 54 53 54 54 54 53 52 51 51 51 51 51 51 52 52 52 52 53 55 56 56 55 54 53 53 54 54 54 53 52 52 51 50 50 52 53 54 56 58 60 60 58 55 52 50 50 52 53 55 57 60 63 65 67 66 64 67 68 64 60 58 59 61 63 63 63 63 63 63 64 64 64 64 65 65
55 52 53 52 51 52 52 52 53 53 53 53 53 53 54 55 56 56 55 54 54 54 54 53 53 52 52 51 51 53 54 55 55 54 53 53 53 53 53 53 53 53 52 53 55 55 55 56 57 57 58 59 58 56 53 50 50 52 54 56 57 59 61 63 65 67 68 67 66 66 66 64 61 60 62 63 63 64 64 65 65 65 65 65 64 64 65 65
56 56 55 53 54 54 53 51 51 51 49 49 52 54 56 56 56 54 54 54 55 56 57 56 55 54 54 53 53 54 55 56 56 55 55 55 56 57 57 57 56 56 57 57 55 54 55 57 57 57 57 56 55 53 53 54 56 59 60 60 61 61 61 62 66 68 67 68 68 64 64 66 64 62 65 66 65 65 65 66 66 66 66 65 64 64 65 65
58 58 57 55 56 57 56 53 52 51 50 51 53 54 54 55 54 53 53 54 56 57 58 58 58 58 57 56 55 55 55 55 57 59 60 61 62 63 63 62 61 62 61 58 54 52 54 57 58 58 57 57 56 56 58 60 61 61 61 60 59 58 58 62 67 67 65 69 70 64 65 70 66 64 67 68 66 66 66 66 66 66 66 66 65 65 65 65
60 60 59 59 59 59 58 57 56 56 55 56 57 57 56 56 55 55 55 56 56 57 58 60 60 60 60 60 60 59 59 59 61 62 63 63 63 63 64 63 63 62 61 60 58 58 58 59 59 58 58 58 57 58 58 59 59 59 58 57 57 57 60 64 66 64 64 69 71 67 68 71 67 65 67 67 66 66 65 66 66 65 65 65 65 65 65 66
63 62 61 61 61 59 58 57 58 59 57 55 56 56 58 59 60 60 61 62 62 62 62 63 62 62 63 63 62 63 63 64 65 64 62 62 62 63 63 63 63 62 61 59 58 58 58 59 60 59 59 59 59 58 58 57 58 58 57 57 57 60 63 65 63 62 65 70 70 69 71 70 67 67 67 64 64 65 65 65 65 64 64 64 64 65 65 66
65 65 65 64 62 59 57 56 58 59 57 55 54 53 56 60 63 63 64 64 64 63 64 64 63 62 60 59 59 62 64 65 64 63 62 61 62 62 63 63 63 63 63 61 60 58 58 59 60 60 60 60 60 59 58 58 59 60 59 59 61 63 64 63 63 64 68 71 70 70 72 71 67 65 64 63 63 65 64 63 63 63 63 63 64 64 65 66
66 67 67 67 66 64 61 58 59 61 61 60 58 57 58 61 62 62 61 59 59 60 63 64 62 60 57 56 58 62 63 63 64 64 64 64 64 64 64 66 66 66 66 65 62 60 58 59 59 59 60 61 59 59 60 60 61 63 63 63 63 64 64 63 64 66 67 69 70 71 73 70 64 62 64 64 63 63 62 61 61 62 63 64 64 64 65 66
66 67 67 67 67 67 65 63 63 65 66 64 63 63 63 63 62 63 63 61 59 59 60 61 61 60 59 59 61 63 64 66 67 66 66 66 65 64 63 63 64 64 64 63 61 60 59 59 59 58 61 62 60 61 62 62 64 67 67 63 62 63 64 64 65 65 65 67 69 70 69 66 62 62 63 62 61 61 61 61 61 62 63 64 65 65 66 66
Wind_Direction
230 230 231 232 233 234 236 238 240 242 245 248 250 254 256 259 262 264 267 270 272 274 274 274 272 270 267 264 261 259 258 257 258 260 261 264 266 268 271 274 276 278 280 282 285 286 288 289 290 291 292 293 293 294 296 297 298 297 297 297 296 295 296 296 295 296 296 295 296 298 299 300 301 305 306 307 302 296 298 299 297 295 296 297 298 298 298 297
230 231 232 234 235 237 239 241 243 245 247 250 252 255 258 260 263 265 268 270 271 272 272 271 270 268 266 263 261 261 260 260 261 263 264 266 268 270 272 275 276 278 279 281 283 285 287 288 289 290 291 293 293 294 295 296 296 294 294 293 292 292 292 292 292 294 295 295 296 297 299 299 301 303 305 307 301 296 298 296 293 294 296 296 296 297 300 303
231 233 234 236 237 239 241 243 245 247 250 252 255 257 260 262 265 267 269 270 270 270 269 267 266 265 264 263 262 262 262 263 263 265 267 269 270 271 273 274 275 276 278 280 282 283 285 286 287 288 290 291 292 293 294 294 292 290 289 288 287 287 288 289 292 294 294 295 295 296 298 299 301 303 305 307 300 298 298 292 289 289 292 295 296 300 304 308
233 235 236 238 240 241 243 245 247 250 252 254 257 259 261 264 266 267 268 269 268 267 266 264 263 262 262 262 262 263 264 265 266 268 269 270 272 273 274 274 275 276 277 278 279 281 282 283 284 286 288 289 290 291 292 292 289 287 285 283 283 285 287 290 293 295 295 295 296 297 299 300 300 302 305 304 299 299 299 293 287 285 288 294 298 303 305 307
236 237 238 240 242 244 246 248 250 252 254 256 258 260 263 264 266 267 267 266 265 263 262 261 260 260 260 261 263 265 267 268 269 271 271 272 273 274 274 275 276 276 277 277 278 280 281 282 284 286 287 288 289 291 291 289 287 285 282 281 282 286 290 294 296 296 297 298 297 298 300 299 300 304 305 303 301 300 298 294 290 288 289 292 297 302 304 305
238 240 241 243 244 246 248 250 252 254 256 258 260 262 263 265 266 266 265 264 262 261 260 259 258 258 260 261 264 266 268 270 272 273 274 275 275 276 276 277 277 278 278 279 280 281 281 282 284 286 286 287 288 289 288 285 283 282 281 282 283 286 291 295 296 296 298 298 298 298 299 298 300 303 301 300 299 297 294 291 291 291 292 292 294 298 301 303
241 242 244 245 247 248 250 252 253 255 257 259 261 262 263 264 264 264 263 262 261 260 259 259 259 259 261 264 266 269 271 272 274 276 277 278 278 278 279 279 280 280 281 281 282 282 283 284 284 285 285 286 286 285 282 279 278 276 276 278 281 284 288 291 292 293 295 295 295 297 296 295 296 296 295 296 296 293 290 289 290 292 293 294 295 297 299 301
243 245 246 247 249 250 252 253 255 257 258 260 261 261 262 262 261 261 261 260 260 260 260 260 261 262 264 266 269 272 273 275 277 278 279 279 280 280 280 281 281 282 283 283 284 285 284 284 284 283 282 282 281 279 277 275 273 271 271 275 279 282 285 286 287 288 289 290 290 292 291 290 292 292 292 294 293 290 289 288 289 291 293 295 297 298 299 300
246 247 248 250 251 252 254 255 256 257 258 258 259 259 259 259 259 259 259 260 260 260 260 261 263 264 266 268 270 273 274 276 277 277 278 278 279 279 279 280 281 282 284 285 286 286 285 284 283 281 279 277 276 274 274 274 273 272 273 276 279 282 283 283 284 284 285 285 285 287 287 287 290 291 290 290 288 287 288 288 288 289 292 294 296 299 300 301
248 249 250 251 253 253 254 255 256 256 256 257 257 257 257 257 258 258 259 260 261 262 262 263 264 266 267 269 271 273 274 275 276 275 275 275 276 277 277 278 279 280 281 283 284 284 284 283 282 280 278 276 274 274 274 275 276 277 278 279 281 282 283 283 283 284 285 285 285 286 286 287 289 289 288 286 284 284 285 285 287 289 291 292 295 297 300 301
250 251 252 252 253 253 254 254 255 255 255 255 256 256 257 258 258 259 261 262 263 264 265 265 266 268 269 270 271 272 272 273 273 272 272 272 274 275 276 276 276 277 277 278 279 280 280 281 280 279 278 277 276 276 276 278 279 280 280 281 282 282 282 283 284 286 286 287 286 286 286 288 290 289 287 286 284 283 283 284 286 288 290 292 294 295 296 296
250 251 252 253 253 253 254 254 254 254 255 255 256 257 258 259 260 261 262 264 265 266 267 267 268 269 269 270 270 269 270 270 270 270 271 272 273 274 275 275 276 276 276 276 276 276 277 277 277 277 277 277 277 278 279 280 281 281 281 281 282 282 283 284 286 287 287 287 287 286 286 288 290 290 289 288 286 285 285 286 288 290 292 293 293 294 293 291
251 251 252 253 253 253 254 254 255 255 256 256 257 258 259 260 261 263 264 265 266 266 267 267 268 268 267 268 267 266 267 267 268 269 270 272 274 274 275 275 275 275 275 275 275 275 275 275 275 276 276 277 278 279 280 281 281 282 281 281 281 281 283 285 287 288 287 286 287 287 288 290 291 291 292 291 289 288 290 292 293 294 293 292 291 290 289 289
251 252 252 253 253 254 254 255 255 256 256 257 258 259 261 262 262 263 264 265 265 265 266 266 266 266 265 265 265 265 265 265 266 268 270 272 273 274 274 274 274 274 275 275 275 275 275 276 276 276 277 278 279 280 281 282 282 282 282 281 281 281 283 286 287 288 288 287 288 289 291 295 296 293 294 293 291 292 294 296 296 293 290 288 286 286 286 285
251 251 252 253 253 254 254 255 255 256 257 258 259 260 261 262 262 263 263 263 264 264 264 264 264 264 264 264 263 264 265 265 266 268 269 271 272 273 274 274 274 275 275 275 276 276 277 277 277 278 279 280 281 282 282 281 282 283 282 281 282 283 284 286 288 288 288 288 290 292 295 299 298 293 291 291 293 296 297 296 293 290 287 285 285 283 282 282
250 251 251 252 252 253 254 255 255 256 257 258 259 260 260 261 261 261 262 262 262 263 263 264 264 264 264 264 264 264 264 265 266 267 268 269 270 272 272 273 274 275 276 276 276 277 277 277 278 279 280 281 282 283 281 279 280 281 281 282 283 284 284 284 285 286 287 288 291 294 298 301 299 293 290 290 295 297 297 296 294 292 291 290 288 286 285 284
249 250 251 251 252 253 253 254 255 256 257 258 258 259 259 260 260 260 261 261 262 262 263 264 264 265 265 265 265 265 264 265 266 266 267 268 269 270 271 272 272 274 275 276 276 277 277 277 278 279 281 283 283 281 279 279 280 280 281 282 283 283 283 283 283 282 283 288 293 297 300 301 301 297 294 294 296 296 295 296 296 296 295 294 293 293 292 291
248 249 250 251 251 252 253 254 254 255 256 257 257 258 259 259 260 260 261 261 262 262 263 263 264 265 265 265 265 265 265 266 266 266 267 268 269 270 271 272 272 273 274 275 276 276 276 277 278 279 281 283 281 278 277 279 280 280 280 280 280 280 282 284 284 283 285 290 295 298 298 298 298 296 294 295 295 294 293 292 291 291 291 291 291 292 291 291
248 249 249 250 250 251 252 252 253 254 254 255 256 257 258 258 259 260 260 261 261 262 262 263 263 265 265 265 266 266 266 267 267 268 269 270 271 271 271 272 273 274 274 275 275 275 277 277 277 280 283 280 277 276 278 280 280 279 279 279 281 282 284 287 286 286 289 291 294 295 293 294 294 292 292 293 293 292 292 290 288 286 285 284 285 286 286 286
248 249 249 249 250 250 250 251 251 252 253 254 255 256 256 257 258 258 259 260 260 261 262 263 264 265 266 266 267 266 266 267 268 270 271 272 272 272 273 274 274 275 276 276 275 276 277 276 278 282 281 277 277 279 281 281 281 280 280 281 282 284 286 287 286 287 288 289 290 290 289 290 291 291 291 292 292 292 291 290 289 286 283 282 282 282 283 284
248 249 249 249 250 250 250 251 251 251 252 253 254 255 256 257 257 258 259 259 260 261 262 263 264 265 266 266 265 266 266 266 268 269 270 271 272 273 274 275 275 276 276 276 276 278 277 277 281 282 279 278 280 282 281 281 282 282 282 282 282 284 284 283 283 284 285 286 288 287 287 288 288 289 290 291 291 291 291 290 289 288 286 284 283 282 283 285
247 248 249 249 250 250 251 251 251 252 253 254 254 256 256 257 258 259 259 259 260 261 262 262 264 264 264 265 265 265 265 266 267 268 269 271 272 273 273 274 275 275 275 275 277 278 277 278 280 279 278 280 281 280 280 280 281 281 281 280 281 283 281 279 280 281 282 284 286 287 288 288 288 289 289 290 291 291 291 290 289 288 287 287 287 287 286 286
247 247 248 249 249 250 250 251 251 252 253 254 254 255 256 258 259 259 260 260 259 261 262 262 263 263 263 264 265 265 265 266 267 268 270 271 272 272 272 272 273 272 273 276 277 275 275 277 279 277 277 278 278 278 278 278 278 278 278 279 281 281 279 278 280 280 281 283 285 287 288 288 288 290 290 291 292 291 291 291 290 289 288 288 288 288 287 287
248 248 248 249 249 250 251 251 251 252 253 254 254 255 256 257 258 259 260 261 259 259 261 263 262 262 262 263 264 266 268 268 269 270 272 272 272 272 271 271 270 270 272 274 273 272 274 277 278 276 276 275 275 275 276 276 276 276 278 279 280 279 278 280 281 281 283 285 286 288 289 289 290 291 292 293 293 291 290 291 291 291 290 290 289 289 288 288
247 248 249 249 250 250 251 251 252 252 253 254 255 255 256 257 258 259 261 262 261 258 259 262 263 262 262 263 264 267 269 269 271 273 273 273 272 271 270 269 269 269 270 270 269 270 273 277 275 274 274 274 273 274 275 275 274 275 277 278 278 277 278 279 280 281 283 285 287 289 290 292 294 293 291 291 290 289 289 290 290 291 291 290 291 290 290 289
246 247 249 249 250 250 251 251 252 253 253 254 255 256 257 258 259 260 261 263 262 260 258 260 262 263 263 264 266 268 269 271 273 275 274 273 272 271 269 268 267 268 267 267 267 269 272 273 271 272 273 273 274 275 274 273 273 275 277 276 276 276 278 279 280 282 283 285 287 288 290 295 297 294 291 289 287 287 288 289 289 289 290 290 290 290 290 290
247 247 248 249 250 251 251 252 252 253 254 254 255 256 257 259 260 261 263 263 264 263 260 259 259 262 264 265 267 269 271 273 275 275 274 274 272 271 270 269 267 266 266 266 267 268 269 268 268 270 271 272 274 274 272 272 274 276 275 275 276 278 279 280 281 282 284 286 287 288 290 294 296 293 290 288 287 288 288 288 289 290 291 290 289 289 289 290
248 248 249 249 250 251 251 252 252 253 254 254 255 257 258 259 260 262 263 264 265 265 263 261 260 262 264 266 268 270 272 275 276 276 275 273 272 272 271 270 267 266 266 266 266 267 266 266 267 268 269 271 271 270 271 273 274 275 275 276 277 278 279 280 281 282 284 286 286 287 290 292 294 292 288 287 288 289 289 289 291 292 291 290 289 290 290 290
248 249 250 250 250 251 252 252 253 254 255 256 256 257 258 259 260 261 262 263 266 266 265 265 265 265 266 268 270 272 273 275 276 276 275 273 272 270 269 268 267 266 266 266 265 265 266 267 267 267 268 268 268 269 270 272 273 274 275 276 276 276 277 278 279 280 283 284 285 288 288 287 290 290 287 288 289 289 291 293 293 292 292 291 291 291 291 290
247 249 250 251 251 252 253 253 254 255 256 256 257 257 258 259 260 261 261 263 265 267 268 268 268 268 269 271 272 272 273 274 274 274 273 272 271 269 268 267 267 266 266 266 265 266 267 267 267 268 268 267 268 269 271 272 274 275 275 275 274 275 276 276 278 279 281 284 285 286 283 280 285 288 287 287 289 290 292 293 292 292 292 292 292 291 291 290
249 249 249 250 251 253 254 254 254 255 255 256 257 258 259 260 260 260 261 263 266 267 269 270 270 271 272 273 273 271 271 271 270 270 270 270 269 269 268 267 267 266 266 267 266 267 268 268 269 270 269 270 271 272 273 274 274 274 273 273 273 275 276 276 278 278 280 284 284 281 277 276 281 285 285 287 290 292 292 292 292 292 291 291 290 290 289 289
251 252 252 252 253 254 254 254 254 254 255 255 257 259 259 260 260 259 261 264 265 266 268 270 272 273 273 271 271 270 269 268 266 265 265 265 266 266 266 265 265 266 267 267 266 267 269 270 272 273 274 274 274 274 274 273 272 271 271 272 273 276 276 277 278 279 280 280 278 276 275 276 281 283 284 288 290 291 291 292 292 292 291 290 288 288 287 287
251 252 253 253 254 255 255 254 253 254 255 255 257 258 258 258 259 260 262 263 264 266 268 270 271 272 271 269 268 267 266 264 263 263 262 262 263 263 262 263 264 265 266 266 266 267 270 273 275 276 276 275 275 275 274 272 271 271 272 273 274 274 275 277 279 277 275 273 272 272 273 277 281 284 286 288 288 288 289 290 290 289 288 287 286 286 286 286
247 247 249 250 250 251 252 252 252 252 253 253 254 254 253 255 259 261 263 264 264 266 268 269 269 269 268 267 265 263 262 261 262 263 264 263 263 263 263 263 263 263 264 266 268 270 273 275 276 276 275 275 276 276 275 275 275 275 275 274 273 273 274 276 274 271 270 271 271 273 274 278 283 285 287 288 287 288 289 288 287 286 286 285 285 286 285 285
246 245 245 246 247 249 250 251 251 251 250 251 252 253 253 256 260 262 264 265 264 264 265 265 265 265 265 264 262 262 261 262 263 265 266 267 267 266 265 263 263 264 266 268 271 273 275 277 277 276 275 275 275 276 276 276 276 276 275 274 273 273 272 271 270 270 272 273 274 276 279 282 284 286 287 288 288 289 289 287 286 286 286 286 286 285 285 284
246 246 246 246 247 249 249 250 251 251 251 251 252 253 255 257 259 261 263 263 261 260 261 261 261 262 263 263 263 263 264 264 266 267 269 270 270 270 269 268 269 270 272 274 275 276 277 277 276 274 274 273 273 273 274 274 273 273 273 273 273 271 269 269 271 272 274 275 277 280 282 284 286 286 287 288 288 288 286 286 286 286 286 286 285 285 284 283
242 244 245 245 246 247 248 249 250 251 251 251 251 253 255 256 258 260 261 260 259 259 258 258 259 261 262 263 263 264 265 266 267 269 271 272 273 273 273 273 275 275 276 278 278 278 278 277 276 275 273 271 270 270 271 271 270 271 273 273 271 269 269 271 272 274 276 277 279 282 283 286 287 286 287 286 285 285 284 285 285 284 284 284 284 283 282 281
242 244 244 244 244 246 247 247 248 250 251 250 249 252 255 257 258 259 259 260 259 259 258 257 258 261 262 263 263 264 265 265 267 269 270 271 272 273 274 274 276 276 278 278 278 278 277 277 277 276 273 271 270 270 270 270 271 273 274 271 269 269 270 271 273 276 278 279 281 283 285 286 286 286 285 283 282 282 283 283 283 283 283 283 282 281 280 280
239 241 244 245 245 245 246 245 246 248 249 249 249 251 255 257 257 257 258 259 259 259 259 258 259 260 262 262 262 262 262 263 266 268 269 270 271 272 273 274 275 276 277 278 278 277 276 275 275 276 274 272 271 272 272 273 273 272 270 268 267 268 270 272 275 278 279 279 281 283 284 285 286 285 283 282 282 283 283 283 284 283 282 282 281 281 281 280
235 237 240 243 244 245 245 245 246 247 248 249 249 252 255 256 256 255 254 256 257 257 258 259 260 260 260 260 260 261 261 263 265 267 268 268 270 271 273 275 276 276 275 275 276 276 275 274 275 276 275 274 275 276 276 273 269 267 267 267 268 268 270 273 276 278 279 279 280 282 282 285 286 285 284 284 284 284 284 284 284 282 282 282 282 282 281 280
231 232 233 236 239 241 241 243 244 245 247 248 249 251 252 252 252 250 248 249 251 253 254 256 257 258 257 256 257 258 260 262 264 266 267 268 271 273 274 275 275 273 271 270 271 271 271 272 273 274 275 275 275 273 271 269 268 268 268 268 269 269 271 275 278 279 280 279 280 280 280 283 285 284 284 286 285 285 284 284 283 283 283 283 282 281 280 279
232 231 232 234 235 235 236 238 241 243 245 247 248 247 247 246 245 245 245 246 248 250 252 253 255 256 256 256 256 257 260 263 265 266 267 269 271 273 273 273 271 270 268 266 266 267 267 268 270 272 272 271 270 270 271 272 272 271 271 272 272 271 273 277 279 280 279 278 279 279 280 283 285 284 285 287 287 286 285 284 283 282 282 282 282 280 279 278
235 234 233 234 234 232 232 234 237 240 243 244 243 240 239 240 241 243 246 247 248 249 251 252 253 256 257 258 260 262 264 266 267 268 269 271 273 273 273 271 268 266 265 264 266 266 267 268 268 269 269 268 270 272 273 274 274 274 274 275 274 274 277 280 281 281 280 279 281 280 280 284 286 286 286 286 285 285 284 283 283 282 282 281 280 279 278 278
234 233 231 231 233 232 231 230 233 237 238 238 237 237 238 240 241 243 245 247 248 249 250 251 253 254 255 256 258 261 263 263 264 266 267 268 268 268 266 265 263 263 263 264 265 266 267 268 268 269 270 270 272 274 274 275 274 273 272 272 271 273 277 279 280 280 279 279 280 279 280 284 286 286 285 283 283 284 284 283 283 282 281 280 279 279 278 278
233 232 232 231 232 232 231 231 232 234 235 235 236 237 238 239 240 242 244 246 247 249 251 252 252 252 251 251 253 255 256 256 257 259 260 261 260 260 260 260 260 261 262 264 266 268 269 270 270 270 271 272 273 273 272 269 267 265 266 268 270 273 275 277 277 276 276 277 277 278 282 285 285 284 283 282 282 283 283 283 283 282 280 280 279 279 278 277
236 236 236 236 235 233 232 233 234 234 234 235 237 237 238 239 240 241 243 245 247 249 251 252 253 252 250 248 248 250 251 252 254 255 256 257 259 260 262 263 264 265 267 268 269 270 270 270 271 271 272 272 270 267 265 264 263 264 266 269 271 273 274 275 274 273 275 277 277 281 284 283 283 284 283 283 283 283 282 282 281 280 280 280 280 279 279 278
239 239 239 239 240 239 236 234 236 237 238 239 241 241 241 241 241 241 243 244 245 246 248 249 249 250 250 250 250 252 253 253 254 256 257 259 261 262 264 265 267 268 269 270 269 268 268 269 271 272 271 270 267 264 263 263 264 265 267 269 270 272 274 274 272 273 276 277 279 283 282 280 281 283 283 283 283 282 281 280 279 279 280 280 280 280 280 280
240 241 241 242 244 245 244 242 242 245 247 249 250 249 247 246 246 245 246 246 246 247 248 249 249 251 254 256 259 261 261 261 261 262 263 264 264 264 264 265 266 267 268 269 269 269 269 270 272 271 270 269 267 265 265 265 265 266 268 271 272 274 274 272 272 276 278 277 278 281 279 279 281 281 281 282 281 280 279 278 278 279 279 280 280 279 280 280
240 241 242 243 245 247 248 248 248 250 251 251 251 251 250 250 250 250 250 250 251 251 253 254 256 257 259 261 265 266 266 267 268 267 266 266 264 264 265 265 266 267 268 268 269 269 269 271 272 271 270 269 268 268 268 268 268 269 271 274 276 276 274 274 278 283 280 277 279 280 279 279 280 280 280 281 279 278 277 277 279 279 279 279 279 279 279 280
239 240 241 242 244 245 245 245 245 247 247 244 242 243 246 248 250 251 252 252 254 256 257 257 258 258 260 262 263 265 267 268 267 265 264 263 263 264 265 266 267 268 268 268 268 269 269 270 271 271 269 269 270 270 270 270 270 271 274 277 277 276 277 280 284 283 279 278 280 280 279 279 280 281 280 279 277 277 278 279 280 279 279 279 279 279 280 281
238 239 240 241 242 243 243 241 240 240 240 240 239 240 241 245 249 251 253 254 256 257 259 259 259 259 260 259 259 262 264 262 260 260 260 261 262 264 265 266 268 268 268 268 269 270 270 270 270 270 268 269 271 271 270 271 271 272 275 278 278 279 281 282 280 278 278 279 279 278 277 279 281 279 277 276 277 279 280 280 279 278 278 279 280 281 281 281
237 238 239 239 240 241 241 240 238 238 238 239 241 241 241 244 247 249 252 253 253 253 255 257 258 258 258 256 256 257 256 253 254 256 258 259 261 263 264 266 266 266 267 267 268 270 271 271 271 270 269 269 271 270 270 270 269 271 277 280 280 280 280 278 276 276 277 277 276 276 278 279 279 276 275 276 278 278 278 278 278 278 279 279 280 281 281 281
Height
5860 5861 5862 5863 5864 5865 5865 5866 5867 5868 5868 5869 5869 5870 5870 5871 5871 5872 5872 5872 5872 5873 5873 5873 5873 5873 5874 5874 5874 5874 5875 5875 5875 5875 5876 5876 5876 5876 5876 5876 5876 5876 5876 5876 5876 5876 5875 5875 5875 5874 5874 5874 5873 5873 5873 5873 5872 5871 5871 5870 5870 5869 5870 5869 5869 5869 5869 5868 5868 5867 5867 5867 5866 5866 5866 5865 5864 5862 5861 5860 5858 5856 5855 5855 5855 5855 5856 5856
5858 5859 5860 5861 5862 5863 5864 5864 5865 5866 5866 5867 5868 5868 5869 5869 5870 5870 5870 5870 5871 5871 5871 5871 5872 5872 5872 5872 5873 5873 5873 5874 5874 5874 5874 5874 5874 5874 5874 5874 5874 5874 5874 5874 5874 5874 5873 5873 5873 5873 5872 5872 5871 5871 5871 5871 5870 5869 5869 5868 5868 5867 5868 5867 5867 5867 5867 5867 5866 5866 5866 5865 5864 5864 5864 5864 5862 5861 5861 5859 5857 5855 5853 5853 5853 5854 5855 5855
5856 5857 5858 5859 5860 5861 5861 5862 5863 5864 5865 5865 5866 5866 5867 5867 5868 5868 5868 5869 5869 5869 5870 5870 5870 5870 5870 5870 5871 5871 5871 5871 5872 5872 5872 5872 5872 5872 5872 5872 5872 5872 5872 5872 5872 5872 5871 5871 5871 5870 5870 5870 5869 5869 5869 5869 5868 5867 5867 5867 5866 5865 5865 5866 5865 5865 5865 5865 5864 5864 5864 5863 5862 5862 5862 5862 5860 5858 5859 5858 5855 5854 5852 5851 5851 5852 5853 5854
5853 5854 5855 5856 5857 5858 5859 5860 5861 5862 5862 5863 5864 5864 5864 5865 5865 5866 5866 5866 5867 5867 5868 5868 5868 5868 5868 5868 5869 5869 5869 5869 5870 5870 5870 5870 5870 5870 5870 5869 5869 5869 5869 5869 5869 5869 5869 5868 5868 5868 5868 5867 5867 5867 5867 5866 5866 5865 5865 5864 5864 5863 5863 5864 5863 5863 5863 5863 5862 5862 5862 5861 5859 5860 5860 5860 5858 5856 5856 5855 5853 5852 5852 5850 5849 5851 5852 5852
5850 5852 5853 5854 5855 5856 5857 5858 5858 5859 5860 5860 5861 5862 5862 5863 5863 5863 5864 5864 5865 5865 5866 5866 5866 5866 5866 5866 5866 5866 5867 5867 5867 5868 5867 5867 5867 5867 5867 5867 5867 5867 5867 5867 5867 5867 5866 5866 5866 5865 5865 5864 5864 5864 5864 5864 5863 5862 5862 5862 5862 5862 5861 5861 5861 5861 5861 5860 5860 5860 5859 5858 5857 5857 5857 5857 5856 5854 5853 5852 5850 5849 5851 5850 5849 5849 5849 5850
5848 5849 5850 5851 5852 5853 5854 5855 5856 5856 5857 5858 5858 5859 5859 5860 5860 5861 5861 5862 5862 5863 5863 5864 5864 5864 5864 5864 5864 5864 5864 5864 5865 5865 5865 5865 5865 5865 5865 5865 5864 5864 5864 5864 5864 5864 5863 5863 5863 5862 5862 5861 5861 5861 5861 5861 5861 5860 5860 5860 5860 5860 5859 5858 5858 5858 5858 5858 5857 5857 5856 5855 5855 5855 5854 5854 5854 5852 5850 5849 5847 5847 5848 5848 5848 5847 5847 5847
5845 5846 5847 5848 5849 5850 5851 5852 5853 5854 5854 5855 5856 5856 5857 5857 5858 5858 5858 5859 5860 5860 5861 5861 5861 5862 5862 5862 5862 5862 5862 5862 5863 5862 5862 5862 5862 5862 5862 5862 5862 5861 5861 5861 5861 5861 5860 5860 5860 5859 5859 5858 5858 5858 5858 5858 5859 5858 5858 5858 5858 5858 5857 5856 5856 5855 5855 5855 5855 5855 5854 5853 5853 5854 5852 5852 5851 5849 5848 5846 5845 5844 5844 5845 5845 5846 5845 5845
5842 5843 5844 5845 5846 5847 5848 5849 5850 5850 5851 5852 5852 5853 5854 5854 5855 5855 5856 5856 5857 5858 5858 5858 5859 5859 5860 5860 5860 5860 5859 5859 5860 5860 5859 5859 5859 5859 5859 5859 5859 5858 5858 5858 5858 5858 5857 5857 5857 5857 5856 5856 5855 5855 5856 5856 5857 5857 5856 5856 5856 5856 5855 5854 5854 5853 5854 5853 5852 5853 5852 5850 5851 5851 5851 5850 5848 5846 5845 5844 5843 5842 5841 5841 5842 5842 5842 5842
5838 5839 5840 5841 5843 5844 5844 5845 5846 5847 5848 5849 5849 5850 5850 5851 5852 5852 5853 5853 5854 5855 5855 5856 5856 5856 5857 5857 5857 5857 5856 5856 5857 5857 5856 5856 5856 5856 5856 5856 5856 5856 5855 5855 5855 5855 5854 5854 5854 5854 5854 5854 5853 5853 5853 5853 5854 5854 5854 5854 5853 5853 5853 5852 5852 5852 5852 5851 5851 5851 5849 5848 5849 5849 5848 5848 5845 5843 5842 5841 5841 5840 5840 5839 5839 5839 5839 5838
5835 5836 5837 5838 5839 5840 5841 5842 5843 5844 5844 5845 5846 5846 5847 5848 5849 5849 5850 5850 5851 5852 5852 5853 5853 5853 5854 5854 5855 5854 5853 5853 5853 5853 5854 5853 5853 5853 5853 5853 5853 5853 5853 5853 5852 5852 5851 5851 5852 5852 5852 5852 5851 5851 5851 5851 5851 5851 5851 5851 5850 5850 5850 5849 5849 5849 5849 5848 5848 5848 5847 5846 5846 5846 5845 5845 5843 5841 5839 5838 5839 5839 5838 5837 5837 5837 5836 5835
5831 5832 5833 5834 5835 5836 5837 5838 5839 5840 5841 5842 5842 5843 5844 5845 5846 5846 5847 5847 5848 5848 5849 5849 5850 5850 5850 5851 5852 5851 5850 5850 5850 5850 5850 5850 5850 5850 5850 5850 5850 5850 5850 5850 5849 5849 5849 5849 5849 5849 5849 5850 5849 5849 5849 5849 5848 5848 5848 5848 5847 5847 5847 5846 5846 5846 5846 5845 5844 5844 5844 5844 5843 5842 5841 5841 5840 5838 5837 5836 5837 5837 5836 5835 5835 5834 5833 5832
5827 5828 5829 5830 5832 5833 5834 5835 5836 5836 5837 5838 5839 5840 5841 5841 5842 5843 5843 5844 5844 5845 5845 5846 5846 5847 5847 5848 5849 5847 5847 5847 5847 5847 5847 5847 5847 5847 5847 5847 5847 5847 5847 5847 5847 5846 5846 5846 5846 5846 5846 5847 5846 5846 5846 5846 5846 5845 5845 5845 5845 5844 5844 5843 5843 5843 5842 5841 5840 5840 5841 5842 5841 5839 5838 5838 5836 5835 5834 5834 5835 5835 5834 5833 5832 5831 5830 5829
5823 5824 5825 5826 5828 5829 5830 5831 5832 5833 5834 5834 5835 5836 5837 5838 5838 5839 5840 5840 5840 5841 5841 5842 5842 5843 5844 5845 5845 5844 5844 5844 5843 5843 5843 5844 5844 5844 5843 5843 5843 5843 5843 5843 5843 5843 5843 5843 5842 5843 5843 5843 5843 5843 5842 5842 5842 5842 5841 5841 5842 5841 5841 5840 5839 5840 5838 5837 5836 5836 5837 5841 5840 5836 5835 5835 5833 5832 5832 5832 5833 5833 5832 5830 5829 5828 5827 5827
5819 5820 5821 5822 5823 5825 5826 5827 5828 5829 5829 5830 5831 5832 5833 5834 5834 5835 5836 5836 5836 5837 5837 5838 5838 5839 5840 5841 5841 5841 5841 5841 5840 5840 5840 5840 5840 5840 5840 5840 5840 5840 5840 5840 5840 5840 5839 5839 5839 5839 5840 5840 5840 5840 5839 5839 5838 5838 5837 5837 5837 5838 5839 5838 5836 5836 5835 5833 5833 5833 5834 5838 5838 5835 5832 5831 5829 5829 5829 5830 5830 5829 5828 5827 5827 5826 5825 5824
5814 5815 5817 5818 5819 5820 5821 5822 5823 5824 5825 5826 5827 5828 5829 5829 5830 5831 5831 5832 5832 5833 5833 5833 5834 5835 5836 5838 5838 5837 5837 5837 5837 5837 5836 5836 5836 5837 5837 5837 5837 5836 5836 5836 5836 5836 5836 5836 5836 5836 5836 5837 5836 5836 5836 5835 5834 5834 5833 5832 5833 5834 5836 5836 5834 5832 5831 5830 5830 5830 5831 5834 5835 5833 5830 5828 5826 5826 5826 5827 5826 5825 5824 5824 5824 5824 5823 5822
5810 5811 5812 5813 5815 5816 5817 5818 5819 5820 5821 5822 5823 5823 5824 5825 5826 5826 5827 5827 5828 5828 5829 5829 5830 5830 5832 5833 5834 5834 5834 5833 5833 5833 5833 5833 5833 5833 5833 5833 5833 5833 5833 5833 5833 5832 5832 5832 5832 5832 5833 5833 5833 5832 5831 5831 5831 5830 5828 5828 5829 5830 5832 5834 5833 5830 5828 5827 5827 5827 5828 5829 5830 5829 5827 5826 5825 5824 5823 5823 5822 5821 5820 5820 5820 5820 5820 5819
5805 5806 5807 5809 5810 5811 5812 5813 5815 5816 5817 5817 5818 5819 5820 5821 5821 5822 5822 5823 5823 5824 5824 5825 5826 5826 5827 5829 5830 5830 5830 5830 5830 5829 5829 5829 5830 5830 5830 5830 5830 5830 5829 5829 5829 5829 5828 5828 5829 5829 5829 5830 5830 5828 5826 5827 5828 5826 5825 5825 5826 5826 5827 5829 5830 5827 5825 5824 5823 5824 5824 5825 5826 5824 5822 5822 5822 5822 5821 5820 5818 5817 5816 5816 5815 5815 5815 5815
5800 5801 5803 5804 5805 5806 5807 5809 5810 5811 5812 5813 5814 5814 5815 5816 5817 5817 5818 5818 5819 5820 5820 5821 5822 5822 5823 5825 5825 5826 5826 5826 5826 5826 5826 5826 5826 5826 5826 5826 5826 5826 5826 5825 5825 5825 5824 5825 5825 5826 5827 5827 5825 5823 5822 5823 5824 5823 5822 5822 5822 5823 5823 5825 5826 5823 5821 5821 5820 5820 5819 5820 5822 5821 5819 5818 5818 5818 5818 5817 5816 5815 5813 5812 5811 5811 5811 5811
5796 5797 5799 5800 5801 5802 5803 5804 5805 5807 5807 5808 5809 5810 5811 5811 5812 5813 5813 5814 5814 5815 5815 5816 5817 5817 5819 5820 5821 5821 5822 5822 5822 5822 5823 5823 5823 5823 5822 5822 5822 5822 5822 5822 5821 5821 5821 5821 5821 5823 5824 5823 5820 5819 5819 5819 5820 5819 5819 5818 5818 5819 5820 5821 5820 5818 5816 5817 5818 5817 5815 5816 5817 5816 5816 5815 5814 5814 5814 5813 5813 5813 5811 5810 5809 5808 5808 5808
5791 5793 5794 5795 5796 5798 5799 5800 5801 5802 5803 5804 5805 5806 5806 5807 5807 5808 5809 5809 5810 5811 5811 5812 5813 5813 5814 5816 5816 5816 5817 5817 5818 5819 5819 5819 5819 5818 5818 5818 5818 5818 5818 5818 5817 5818 5817 5816 5818 5821 5820 5817 5816 5816 5816 5815 5815 5815 5814 5814 5814 5814 5816 5816 5814 5812 5812 5812 5813 5813 5812 5812 5812 5811 5811 5811 5810 5809 5809 5809 5808 5809 5808 5807 5806 5806 5805 5804
5787 5788 5789 5790 5792 5793 5794 5796 5797 5798 5799 5800 5801 5801 5801 5802 5802 5803 5804 5805 5806 5806 5807 5808 5808 5810 5810 5811 5811 5811 5812 5813 5814 5815 5815 5815 5815 5814 5815 5814 5814 5815 5814 5813 5813 5814 5813 5812 5816 5817 5814 5813 5813 5812 5812 5811 5811 5810 5810 5810 5810 5811 5811 5811 5810 5809 5808 5807 5808 5808 5808 5808 5807 5807 5807 5806 5806 5805 5804 5804 5804 5804 5804 5803 5803 5802 5802 5801
5782 5783 5784 5786 5787 5788 5790 5791 5792 5793 5794 5795 5796 5796 5797 5797 5798 5799 5799 5800 5802 5802 5803 5803 5804 5806 5806 5805 5806 5807 5807 5809 5810 5811 5811 5811 5811 5811 5810 5810 5811 5810 5809 5809 5810 5810 5808 5809 5813 5812 5809 5809 5809 5808 5808 5807 5807 5806 5806 5806 5807 5807 5806 5806 5806 5805 5804 5803 5803 5802 5802 5802 5802 5802 5802 5802 5802 5800 5799 5799 5799 5799 5799 5798 5798 5798 5797 5796
5777 5778 5780 5781 5782 5784 5785 5786 5788 5789 5790 5790 5791 5791 5792 5792 5793 5793 5794 5795 5797 5798 5798 5799 5800 5801 5802 5801 5801 5802 5803 5805 5806 5807 5808 5807 5807 5806 5806 5807 5807 5805 5805 5806 5806 5804 5802 5806 5808 5806 5805 5805 5804 5804 5804 5803 5803 5802 5802 5802 5803 5803 5801 5801 5802 5801 5799 5799 5798 5797 5797 5797 5798 5798 5798 5798 5797 5795 5794 5794 5794 5794 5793 5793 5793 5792 5792 5791
5771 5773 5774 5776 5778 5779 5780 5782 5783 5784 5785 5786 5786 5787 5787 5788 5788 5788 5788 5788 5791 5794 5794 5794 5795 5796 5796 5796 5796 5797 5798 5801 5801 5802 5804 5803 5803 5802 5801 5802 5801 5801 5802 5802 5800 5798 5799 5802 5802 5800 5800 5800 5800 5800 5800 5800 5799 5798 5798 5799 5799 5798 5797 5797 5797 5796 5795 5794 5793 5792 5792 5792 5794 5794 5793 5793 5792 5790 5789 5789 5789 5788 5788 5788 5787 5787 5787 5786
5766 5767 5769 5771 5772 5774 5775 5777 5778 5779 5780 5781 5781 5782 5782 5783 5783 5784 5784 5782 5784 5789 5791 5789 5789 5790 5791 5791 5792 5793 5794 5795 5797 5798 5799 5798 5798 5797 5797 5797 5796 5797 5798 5797 5794 5793 5796 5798 5796 5795 5795 5795 5795 5796 5796 5795 5794 5795 5796 5795 5794 5794 5793 5793 5792 5791 5790 5789 5789 5788 5786 5786 5788 5789 5788 5788 5787 5785 5784 5784 5784 5783 5783 5783 5782 5781 5781 5780
5760 5761 5763 5765 5767 5768 5770 5771 5773 5774 5775 5776 5776 5777 5777 5778 5779 5778 5779 5776 5776 5783 5786 5785 5784 5783 5785 5787 5788 5789 5789 5790 5793 5793 5792 5792 5792 5791 5791 5791 5792 5792 5793 5791 5789 5790 5793 5793 5790 5790 5790 5790 5791 5792 5791 5790 5789 5791 5792 5791 5789 5789 5789 5788 5787 5787 5785 5785 5784 5783 5782 5782 5782 5781 5782 5783 5781 5781 5781 5780 5780 5779 5779 5778 5777 5776 5775 5774
5754 5755 5757 5759 5761 5763 5764 5766 5768 5769 5769 5770 5771 5772 5772 5773 5773 5773 5774 5770 5769 5775 5779 5780 5779 5778 5780 5783 5784 5784 5784 5785 5787 5786 5786 5786 5785 5786 5785 5786 5787 5787 5787 5786 5785 5787 5788 5787 5786 5786 5786 5786 5787 5787 5786 5785 5786 5787 5787 5786 5784 5784 5784 5783 5783 5782 5781 5780 5779 5778 5780 5780 5777 5775 5776 5776 5776 5776 5776 5775 5775 5775 5774 5773 5772 5771 5770 5769
5748 5749 5751 5753 5755 5757 5758 5760 5762 5763 5764 5765 5766 5767 5767 5768 5768 5768 5768 5764 5762 5766 5769 5772 5774 5775 5776 5778 5779 5780 5779 5780 5780 5779 5780 5780 5779 5780 5780 5780 5781 5781 5781 5781 5781 5782 5782 5782 5782 5782 5782 5782 5782 5781 5781 5781 5782 5782 5782 5781 5780 5780 5779 5778 5778 5776 5776 5776 5773 5775 5777 5775 5772 5770 5768 5769 5771 5770 5770 5770 5769 5769 5768 5767 5766 5765 5764 5764
5742 5743 5745 5747 5749 5750 5752 5754 5756 5757 5759 5760 5760 5761 5761 5762 5762 5762 5762 5759 5756 5757 5761 5764 5768 5770 5772 5773 5774 5775 5774 5774 5773 5773 5774 5773 5773 5774 5774 5775 5775 5776 5776 5776 5776 5777 5777 5777 5777 5777 5778 5778 5777 5776 5777 5777 5777 5777 5777 5776 5775 5775 5774 5774 5773 5772 5772 5770 5768 5772 5773 5769 5766 5764 5762 5763 5765 5764 5763 5764 5763 5762 5761 5760 5759 5759 5758 5757
5735 5737 5739 5740 5742 5744 5747 5750 5751 5752 5753 5754 5754 5755 5755 5755 5756 5756 5753 5752 5751 5751 5753 5758 5761 5764 5766 5768 5769 5769 5768 5768 5767 5767 5767 5768 5768 5768 5769 5770 5770 5770 5770 5771 5772 5772 5772 5772 5772 5772 5773 5772 5772 5772 5772 5772 5772 5772 5772 5771 5770 5769 5769 5768 5768 5768 5767 5765 5765 5768 5767 5763 5761 5760 5758 5759 5759 5758 5758 5758 5757 5756 5756 5754 5753 5752 5751 5750
5729 5730 5732 5734 5737 5739 5742 5744 5744 5745 5746 5747 5747 5748 5748 5748 5749 5747 5744 5745 5748 5747 5747 5751 5754 5758 5761 5762 5762 5762 5763 5763 5763 5763 5762 5763 5763 5763 5764 5764 5764 5765 5765 5766 5768 5767 5767 5766 5767 5767 5767 5767 5767 5768 5767 5767 5767 5767 5766 5765 5765 5764 5764 5763 5763 5763 5762 5761 5762 5762 5760 5758 5757 5755 5755 5755 5753 5753 5752 5751 5750 5750 5750 5749 5748 5746 5745 5744
5722 5723 5725 5728 5730 5732 5736 5738 5737 5738 5739 5741 5741 5741 5741 5741 5738 5737 5738 5741 5743 5742 5743 5746 5749 5752 5754 5754 5755 5755 5756 5757 5757 5758 5758 5758 5758 5759 5759 5759 5759 5759 5760 5762 5763 5762 5761 5761 5761 5761 5762 5762 5762 5762 5763 5762 5762 5761 5760 5760 5759 5759 5757 5757 5757 5758 5757 5756 5756 5755 5753 5752 5752 5752 5752 5751 5749 5748 5746 5745 5744 5743 5743 5742 5741 5740 5739 5738
5715 5716 5718 5721 5724 5726 5729 5731 5730 5731 5733 5734 5735 5734 5733 5730 5727 5730 5733 5736 5738 5738 5740 5743 5744 5745 5745 5746 5748 5749 5749 5750 5750 5752 5752 5753 5753 5754 5754 5754 5755 5755 5755 5756 5756 5756 5756 5756 5756 5756 5756 5757 5757 5757 5757 5757 5756 5755 5755 5755 5754 5753 5751 5752 5753 5752 5751 5750 5749 5749 5747 5746 5747 5748 5747 5746 5744 5742 5741 5741 5739 5738 5737 5735 5734 5734 5733 5733
5709 5710 5711 5714 5717 5719 5722 5723 5723 5725 5726 5727 5727 5725 5723 5721 5721 5725 5727 5730 5735 5736 5736 5737 5738 5738 5738 5739 5741 5742 5743 5743 5744 5745 5746 5747 5748 5748 5749 5750 5750 5750 5750 5751 5751 5751 5751 5750 5751 5751 5751 5751 5751 5752 5751 5750 5750 5750 5750 5749 5748 5748 5747 5747 5747 5744 5744 5744 5744 5743 5742 5742 5744 5743 5742 5740 5737 5736 5736 5735 5733 5732 5731 5729 5729 5728 5727 5727
5703 5704 5706 5707 5710 5713 5716 5717 5718 5719 5719 5720 5719 5715 5713 5716 5718 5719 5722 5727 5731 5732 5731 5731 5731 5731 5731 5732 5734 5735 5737 5737 5738 5739 5739 5740 5741 5742 5744 5744 5745 5745 5745 5745 5746 5745 5745 5744 5745 5746 5746 5746 5746 5746 5746 5745 5745 5744 5744 5743 5743 5744 5743 5740 5738 5737 5737 5737 5737 5737 5736 5737 5739 5738 5736 5732 5731 5730 5729 5727 5725 5724 5724 5723 5722 5721 5721 5720
5696 5698 5700 5701 5705 5709 5710 5711 5713 5713 5713 5713 5710 5705 5707 5713 5715 5714 5717 5721 5724 5725 5726 5725 5725 5725 5725 5727 5728 5729 5731 5732 5732 5732 5732 5733 5734 5736 5737 5738 5739 5739 5739 5739 5739 5738 5738 5739 5740 5740 5741 5741 5741 5740 5740 5740 5739 5738 5739 5739 5739 5739 5736 5733 5731 5732 5731 5729 5731 5732 5730 5731 5733 5733 5731 5728 5725 5724 5722 5720 5719 5717 5717 5716 5715 5714 5713 5712
5689 5691 5693 5696 5701 5703 5704 5706 5707 5706 5707 5705 5700 5699 5705 5709 5709 5710 5711 5713 5716 5719 5719 5718 5718 5719 5720 5721 5722 5723 5725 5725 5725 5726 5726 5727 5727 5729 5730 5731 5731 5731 5732 5732 5732 5732 5732 5733 5734 5734 5734 5735 5735 5734 5734 5733 5733 5732 5734 5735 5733 5731 5729 5728 5726 5726 5726 5722 5723 5726 5726 5726 5725 5725 5726 5724 5720 5718 5716 5715 5714 5712 5711 5709 5708 5707 5705 5704
5683 5684 5685 5691 5695 5696 5698 5700 5700 5700 5700 5696 5692 5695 5700 5701 5702 5705 5705 5707 5710 5711 5712 5713 5713 5714 5714 5715 5716 5717 5718 5718 5718 5719 5720 5721 5721 5723 5724 5724 5724 5724 5725 5726 5725 5726 5726 5726 5727 5727 5727 5728 5729 5728 5727 5727 5727 5728 5729 5728 5727 5724 5722 5723 5721 5720 5719 5715 5714 5719 5721 5720 5718 5717 5718 5717 5715 5713 5710 5710 5709 5707 5706 5703 5701 5700 5698 5697
5677 5677 5678 5684 5687 5688 5691 5692 5693 5693 5690 5686 5687 5691 5694 5694 5697 5700 5700 5702 5703 5704 5705 5707 5708 5708 5709 5709 5710 5711 5711 5712 5713 5713 5715 5716 5716 5717 5717 5717 5718 5718 5719 5719 5719 5719 5719 5719 5719 5720 5720 5721 5722 5721 5721 5723 5724 5723 5722 5720 5720 5718 5717 5717 5716 5714 5712 5708 5706 5709 5711 5713 5713 5710 5707 5708 5710 5708 5704 5704 5703 5701 5699 5696 5694 5693 5691 5690
5669 5669 5670 5676 5679 5680 5684 5684 5683 5683 5679 5679 5683 5687 5689 5690 5692 5694 5695 5696 5697 5698 5699 5700 5702 5702 5703 5704 5704 5705 5705 5706 5707 5708 5709 5710 5710 5711 5712 5712 5712 5713 5713 5712 5712 5712 5712 5712 5712 5714 5714 5713 5714 5716 5717 5718 5717 5715 5714 5713 5714 5713 5712 5711 5709 5708 5706 5703 5701 5700 5701 5707 5708 5702 5697 5699 5703 5703 5699 5698 5696 5693 5691 5689 5688 5686 5684 5683
5662 5660 5663 5669 5670 5673 5675 5673 5672 5672 5671 5674 5679 5681 5683 5685 5685 5687 5689 5690 5691 5692 5693 5694 5695 5696 5697 5698 5698 5699 5700 5700 5702 5703 5703 5704 5705 5705 5706 5707 5707 5708 5708 5707 5707 5707 5706 5706 5707 5707 5707 5707 5708 5710 5711 5710 5708 5708 5708 5708 5709 5708 5707 5704 5701 5702 5701 5696 5696 5692 5690 5699 5704 5696 5691 5692 5694 5695 5693 5691 5688 5685 5683 5682 5680 5679 5677 5675
5653 5653 5658 5663 5662 5665 5666 5662 5662 5664 5665 5669 5674 5676 5677 5679 5680 5681 5683 5684 5685 5686 5687 5687 5688 5689 5690 5691 5692 5693 5693 5694 5696 5696 5697 5698 5699 5700 5701 5701 5701 5702 5702 5701 5702 5702 5701 5700 5701 5701 5701 5702 5702 5701 5702 5702 5701 5700 5700 5702 5703 5701 5701 5697 5693 5694 5693 5688 5689 5685 5680 5688 5696 5692 5688 5686 5684 5685 5684 5683 5681 5678 5676 5674 5672 5670 5668 5667
5645 5648 5653 5655 5655 5657 5655 5652 5654 5657 5660 5665 5668 5669 5671 5673 5674 5675 5676 5677 5679 5680 5681 5681 5682 5683 5684 5686 5687 5687 5688 5688 5688 5689 5690 5692 5693 5694 5695 5695 5695 5696 5696 5696 5696 5697 5696 5694 5695 5695 5694 5694 5694 5693 5694 5693 5693 5693 5693 5695 5695 5693 5692 5690 5685 5684 5682 5680 5682 5677 5671 5677 5686 5686 5685 5680 5675 5675 5675 5674 5672 5670 5669 5667 5664 5661 5660 5659
5639 5642 5645 5647 5648 5648 5645 5645 5648 5652 5656 5660 5662 5662 5664 5665 5667 5668 5669 5671 5672 5674 5675 5676 5677 5678 5679 5680 5681 5682 5683 5682 5682 5684 5685 5687 5688 5688 5688 5688 5689 5689 5690 5690 5690 5690 5688 5687 5688 5688 5687 5685 5685 5685 5685 5686 5686 5687 5687 5687 5687 5686 5686 5683 5679 5675 5671 5672 5675 5669 5664 5671 5678 5678 5676 5672 5668 5668 5667 5664 5663 5662 5660 5658 5656 5654 5653 5652
5634 5636 5638 5640 5641 5639 5639 5641 5645 5647 5651 5654 5654 5656 5657 5657 5660 5662 5663 5664 5665 5667 5668 5670 5671 5672 5672 5673 5674 5675 5676 5676 5677 5679 5680 5682 5682 5682 5681 5681 5683 5683 5683 5683 5683 5682 5680 5680 5680 5680 5678 5677 5677 5678 5679 5681 5681 5679 5680 5680 5680 5681 5679 5676 5672 5667 5663 5665 5666 5664 5661 5664 5669 5668 5665 5663 5663 5662 5659 5656 5654 5653 5650 5648 5648 5646 5645 5644
5626 5628 5631 5634 5633 5632 5634 5637 5638 5641 5644 5646 5647 5648 5649 5651 5654 5656 5657 5657 5658 5660 5661 5662 5664 5665 5666 5667 5667 5667 5669 5670 5671 5672 5674 5675 5675 5675 5675 5674 5676 5677 5676 5676 5676 5674 5670 5670 5672 5672 5671 5671 5672 5673 5673 5673 5673 5672 5672 5675 5674 5673 5673 5669 5661 5658 5659 5657 5656 5660 5659 5654 5658 5661 5655 5653 5655 5653 5651 5648 5645 5643 5642 5641 5640 5637 5636 5635
5618 5620 5624 5627 5625 5625 5629 5632 5633 5635 5638 5639 5639 5642 5644 5646 5648 5650 5650 5650 5652 5653 5653 5654 5657 5658 5659 5661 5660 5660 5662 5664 5664 5664 5666 5666 5667 5667 5668 5668 5668 5669 5669 5668 5668 5666 5662 5662 5665 5665 5664 5664 5664 5665 5665 5665 5664 5665 5666 5667 5668 5667 5665 5660 5652 5652 5656 5649 5645 5653 5652 5644 5649 5654 5647 5643 5646 5644 5641 5639 5636 5636 5635 5633 5631 5629 5628 5627
5611 5613 5617 5618 5617 5618 5622 5627 5628 5629 5630 5631 5632 5635 5639 5641 5642 5643 5644 5644 5645 5646 5646 5647 5650 5652 5653 5653 5653 5653 5654 5655 5656 5657 5658 5658 5659 5659 5660 5660 5660 5661 5661 5659 5659 5658 5655 5654 5657 5657 5655 5656 5656 5656 5657 5657 5656 5657 5658 5659 5660 5659 5655 5649 5646 5649 5650 5641 5637 5643 5642 5637 5643 5646 5639 5636 5637 5634 5631 5630 5629 5630 5629 5626 5623 5621 5620 5618
5604 5606 5609 5610 5610 5613 5617 5620 5620 5620 5622 5624 5624 5627 5631 5634 5634 5635 5636 5636 5637 5639 5640 5641 5645 5647 5645 5645 5644 5643 5645 5647 5647 5649 5650 5649 5650 5651 5651 5652 5653 5653 5653 5651 5650 5649 5647 5646 5649 5649 5647 5647 5647 5647 5649 5649 5648 5649 5651 5653 5652 5649 5644 5641 5643 5645 5640 5631 5632 5635 5631 5630 5636 5637 5631 5629 5626 5623 5622 5623 5623 5622 5620 5617 5615 5613 5612 5610
5597 5599 5601 5602 5604 5608 5610 5611 5612 5612 5614 5615 5616 5620 5623 5624 5625 5627 5627 5628 5629 5631 5633 5635 5639 5639 5637 5637 5636 5636 5639 5640 5639 5640 5641 5639 5640 5642 5643 5643 5645 5645 5644 5643 5642 5641 5641 5639 5639 5641 5638 5637 5640 5640 5640 5641 5640 5640 5643 5645 5643 5638 5636 5637 5639 5636 5629 5624 5626 5625 5619 5621 5630 5629 5621 5618 5615 5613 5615 5617 5617 5614 5611 5608 5607 5606 5605 5603
5588 5590 5593 5594 5597 5600 5601 5603 5605 5605 5606 5607 5611 5615 5615 5615 5619 5620 5619 5620 5622 5624 5625 5627 5630 5630 5628 5629 5629 5631 5635 5632 5629 5631 5632 5630 5631 5634 5634 5634 5636 5636 5635 5635 5635 5634 5634 5631 5631 5633 5629 5629 5634 5633 5630 5632 5631 5630 5634 5637 5635 5632 5632 5632 5629 5625 5623 5619 5616 5612 5608 5613 5621 5618 5610 5608 5608 5607 5608 5609 5607 5605 5603 5600 5600 5599 5597 5595
5579 5581 5584 5586 5588 5590 5593 5595 5596 5595 5599 5604 5606 5607 5607 5609 5613 5612 5609 5611 5614 5616 5617 5619 5620 5620 5619 5620 5623 5626 5627 5622 5620 5622 5622 5622 5624 5625 5626 5626 5627 5626 5626 5627 5627 5626 5626 5624 5624 5624 5620 5620 5626 5624 5622 5624 5620 5618 5626 5632 5630 5626 5624 5622 5619 5618 5617 5612 5605 5602 5603 5607 5609 5605 5601 5603 5603 5600 5600 5600 5598 5598 5596 5594 5593 5592 5589 5586